Regional Weather Roundup
Issued by NWS Cleveland, OH

Home | Current Version | Previous Version | Text Only | Print | Product List | Glossary Off
Versions: 1 2 3 4 5 6 7 8 9 10 11 12 13 14 15 16 17 18 19 20 21 22 23 24 25 26 27 28 29 30 31 32 33 34 35 36 37 38 39 40 41 42 43 44 45 46 47 48 49 50

000
ASUS41 KCLE 262010
RWRCLE
OHIO REGIONAL WEATHER ROUNDUP
NATIONAL WEATHER SERVICE WILMINGTON, OH
300 PM EST MON JAN 26 2015

NOTE: "FAIR" INDICATES FEW OR NO CLOUDS BELOW 12,000 FEET WITH NO
SIGNIFICANT WEATHER AND/OR OBSTRUCTIONS TO VISIBILITY.

OHZ001>008-015>018-024>027-034-035-043-044-262100-
   NORTHWEST OHIO

CITY           SKY/WX    TMP DP  RH WIND       PRES   REMARKS
DEFIANCE       MOSUNNY   23   9  55 CALM      29.90F
FINDLAY        PTSUNNY   19  11  70 NW8       29.88S WCI   9
TOLEDO EXPRESS MOSUNNY   22  11  62 NW5       29.89F WCI  16
TOLEDO EXEC    SUNNY     23  10  57 NE5       29.90F WCI  17
LIMA           SUNNY     17  10  74 NW9       29.87F WCI   6
$$

OHZ009>014-019>023-028>033-038-089-262100-
   NORTHEAST OHIO

CITY           SKY/WX    TMP DP  RH WIND       PRES   REMARKS
CLE-HOPKINS    CLOUDY    20  16  84 N16       29.87R WCI   6
CLE-LAKEFRONT  CLOUDY    22  16  78 N16G23    29.85R WCI   8
CUY CO. ARPT   CLOUDY    23  18  80 NE17      29.83R WCI   9
LORAIN-ELYRIA  LGT SNOW  20  14  77 NE15      29.86R WCI   6
ASHTABULA      CLOUDY    21  16  81 N9G17     29.80R WCI  11
AKRON-CANTON   CLOUDY    26  18  71 NW13      29.75S WCI  15
WOOSTER        CLOUDY    21  16  81 N18       29.80R WCI   6
MANSFIELD      CLOUDY    20  13  74 NW15      29.80S WCI   6
YOUNGSTOWN     CLOUDY    23  16  74 N12       29.75S WCI  12
$$

OHZ042-051>053-060>062-070>072-077>081-262100-
  SOUTHWEST OHIO

CITY           SKY/WX    TMP DP  RH WIND       PRES   REMARKS
CINC-COVINGTON MOSUNNY   29  18  63 NW8       29.87F WCI  21
CINC-LUNKEN    MOSUNNY   29  18  63 VRB6      29.90F WCI  23
HAMILTON       SUNNY     27  18  69 N6        29.90F WCI  20
DAYTON         PTSUNNY   19  12  74 NW10      29.87F WCI   7
WRIGHT-PAT AFB MOSUNNY   20  12  71 NW7       29.88F WCI  11
DAYTON GENERAL FAIR      20  14  77 NW8       29.86F WCI  10
WILMINGTON     MOSUNNY   22  15  75 NW13      29.84F WCI  10
$$

OHZ036-037-039>041-045>050-054>059-063>069-073>076-082>088-262100-
  CENTRAL AND SOUTHEAST OHIO

CITY           SKY/WX    TMP DP  RH WIND       PRES   REMARKS
COLUMBUS       PTSUNNY   22  14  71 N13       29.83R WCI  10
OSU AIRPORT    PTSUNNY   18  12  77 NW14G22   29.85R WCI   4
BOLTON FIELD   MOSUNNY   19  12  73 NW15      29.85R WCI   5
RICKENBACK AFB PTSUNNY   21  16  81 NW10      29.85R WCI   9
NEWARK         MOSUNNY   26  17  68 NW10      29.80R WCI  16
MARION         PTSUNNY   18  11  74 N14       29.86R WCI   4
LANCASTER      CLOUDY    23  17  78 NW12      29.83R WCI  12
ZANESVILLE     CLOUDY    25  19  78 NW10      29.78R WCI  15
NEW PHILLY     CLOUDY    27  19  72 NW8       29.78R WCI  19
$$


USA.gov is the U.S. government's official web portal to all federal, state and local government web resources and services.